Weather History for Punta Cana, Dominican Republic

Change the Weather History Date:

Thursday, October 24, 2013

  Actual Average Record
Temperature  
Mean Temperature 83 °F -  
Max Temperature 88 °F 84 °F 89 °F (1999)
Min Temperature 78 °F 75 °F 73 °F (2011)
Cooling Degree Days 18    
Growing Degree Days 33 (Base 50)    
Moisture  
Dew Point 77 °F    
Average Humidity 82    
Maximum Humidity 94    
Minimum Humidity 68    
Precipitation  
Precipitation 0.00 in - - ()
Sea Level Pressure  
Sea Level Pressure 29.96 in    
Wind  
Wind Speed 5 mph ()    
Max Wind Speed 10 mph    
Max Gust Speed -    
Visibility 6.6 miles    
Events Thunderstorm    
Averages and records for this station are not official NWS values.
T = Trace of Precipitation, MM = Missing Value Source: Averaged Metar Reports

Daily Weather History Graph

Daily Weather History Graph

Search for Another Location

Airport:

Trip Planner

Search our weather history database for the weather conditions in past years. The results will help you decide how hot, cold, wet, or windy it might be!

Date:

Astronomy

Oct. 24, 2013 Rise Set
Actual Time 6:30 AM AST 6:04 PM AST
Civil Twilight 6:07 AM AST 6:26 PM AST
Nautical Twilight 5:42 AM AST 6:52 PM AST
Astronomical Twilight 5:16 AM AST 7:18 PM AST
Moon 10:42 PM AST (10/24) 11:10 AM AST (10/24)
Length of Visible Light 12h 18m
Length of Day
11h 34m
Waning Gibbous, 71% of the Moon is Illuminated
Oct 24
Waning Gibbous
Oct 26
Last Quarter
Nov 3
New
Nov 10
First Quarter
Nov 17
Full

Hourly Weather History & Observations

Time (AST) Temp. Heat Index Dew Point Humidity Pressure Visibility Wind Dir Wind Speed Gust Speed Precip Events Conditions
5:00 AM 80 °F - 75 °F 80% 29.94 in 10 mi SSE 6.7 mph - -   Partly Cloudy
6:00 AM 80.6 °F 86.2 °F 75.2 °F 84% 29.95 in 5.0 mi SSE 4.6 mph - N/A Thunderstorm Thunderstorm
7:00 AM 80.6 °F 86.2 °F 75.2 °F 84% 29.95 in 5.0 mi SSE 4.6 mph - N/A Thunderstorm Thunderstorm
8:00 AM 80.6 °F 87.1 °F 77.0 °F 89% 29.98 in 6.2 mi Calm Calm - N/A Thunderstorm Thunderstorm
9:00 AM 82.4 °F 90.9 °F 77.0 °F 84% 29.98 in 6.2 mi SSE 6.9 mph - N/A   Mostly Cloudy
10:00 AM 82.4 °F 90.9 °F 77.0 °F 84% 30.01 in 6.2 mi SSE 10.4 mph - N/A   Mostly Cloudy
11:00 AM 86.0 °F 96.9 °F 77.0 °F 74% 30.01 in 6.2 mi SSE 8.1 mph - N/A   Mostly Cloudy
12:00 PM 86.0 °F 99.3 °F 78.8 °F 79% 29.98 in 6.2 mi SE 10.4 mph - N/A   Mostly Cloudy
1:00 PM 86.0 °F 96.9 °F 77.0 °F 74% 29.98 in 6.2 mi SE 9.2 mph - N/A   Mostly Cloudy
2:00 PM 86 °F - 77 °F 68% 29.96 in 10 mi SE 6.7 mph - -   Partly Cloudy
2:00 PM 86.0 °F 96.9 °F 77.0 °F 74% 29.95 in 6.2 mi SE 6.9 mph - N/A   Mostly Cloudy
3:00 PM 86.0 °F 95.1 °F 75.2 °F 70% 29.95 in 6.2 mi SE 8.1 mph - N/A   Mostly Cloudy
4:00 PM 86.0 °F 96.9 °F 77.0 °F 74% 29.92 in 6.2 mi SSE 5.8 mph - N/A   Mostly Cloudy
5:00 PM 82 °F - 77 °F 81% 29.95 in 10 mi South 4.5 mph - -   Partly Cloudy
5:00 PM 82.4 °F 90.9 °F 77.0 °F 84% 29.95 in 6.2 mi South 4.6 mph - N/A   Mostly Cloudy
6:00 PM 80.6 °F 87.1 °F 77.0 °F 89% 29.95 in 6.2 mi Variable 3.5 mph - N/A   Mostly Cloudy
7:00 PM 78.8 °F - 77.0 °F 94% 29.95 in 6.2 mi SE 4.6 mph - N/A   Mostly Cloudy
8:00 PM 78.8 °F - 75.2 °F 89% 29.95 in 5.0 mi ESE 6.9 mph - N/A   Mostly Cloudy
9:00 PM 78.8 °F - 77.0 °F 94% 29.98 in 6.2 mi SE 4.6 mph - N/A   Mostly Cloudy
10:00 PM 80.6 °F 87.1 °F 77.0 °F 89% 29.98 in 6.2 mi SE 5.8 mph - N/A   Mostly Cloudy
11:00 PM 82.4 °F 90.9 °F 77.0 °F 84% 29.98 in 6.2 mi Calm Calm - N/A   Mostly Cloudy